Погода в Большовцах

Украина / Ивано-Франковская область     49°11′01″N   24°44′48″E
темп.,
°C
ветер,
м/с
пор.,
м/с
влажн.,
%
обл.,
%
осадки,
мм/ч
давл.,
гПа
погр.,
м
27 ноября, сб
сб2723:00+4ююв4881100 0.0 994240
02:00+4ююв2481100 0.1 99388
05:00+6ююз3481100 0.0 99390
08:00+5з51177100 0.0 995370
11:00+6з5106132 0.0 998630
14:00+8з245199 0.0 998763
17:00+5ююз226996 0.0 100011
20:00+4юв118295 0.0 100110
28 ноября, вс
вс2823:00+4юв228455 0.0 100211
02:00+3юв228698 0.0 100222
05:00+5юв2379100 0.0 100143
08:00+4всв2286100 0.9 100038
11:00+6вюв1276100 0.1 1000119
14:00+7вюв2374100 0.1 999161
17:00+6вюв2180100 0.0 99710
20:00+5вюв3481100 0.0 99650
29 ноября, пн
пн2923:00+6вюв3780100 0.0 995134
02:00+6юв3880100 0.0 992186
05:00+6в2180100 0.0 99012
08:00+4зсз81187100 0.1 991495
11:00+2зсз71282100 0.6 996744
14:00+2зсз9147699 0.6 996823
17:00+2зсз9146998 0.0 998956
20:00+1зсз8147996 0.0 1000825
30 ноября, вт
вт3023:000зсз91373100 0.0 1001991
02:00+1з91471100 0.0 10031071
05:000з7137698 0.0 1004923
08:00−1зсз7137777 0.0 1006904
11:00+1зсз7117572 0.0 10071129
14:00+1зсз7106897 0.1 10071184
17:00−1зсз512775 0.0 1007597
20:00−2з27865 0.0 1007188
1 декабря, ср
ср123:00−1ююз3117090 0.0 1005337
02:00+2зюз71557100 0.0 10031278
05:00+2з81561100 0.1 1003994
08:00+1з81589100 0.1 1004924
11:00+1з51297100 0.7 1006591
14:00+2з5119299 1.1 1007868
17:00+2з41178100 0.1 1006518
20:00+1ю377697 0.1 1006119